O'Neill, NE

5:58 PM CST on December 06, 2019 (GMT -0600)
The O'Neill Municipal-Baker

Weather History for KONL - November, 2019

Change the Weather History Date:

Tuesday, November 19, 2019

  Actual Average Record
Temperature  
Mean Temperature 44 °F -  
Max Temperature 56 °F 41 °F 69 °F (2003)
Min Temperature 32 °F 23 °F 5 °F (1978)
Degree Days  
Heating Degree Days 21    
Moisture  
Dew Point 32 °F    
Average Humidity 67    
Maximum Humidity 89    
Minimum Humidity 40    
Precipitation  
Precipitation 0.00 in - - ()
Sea Level Pressure  
Sea Level Pressure 29.85 in    
Wind  
Wind Speed 6 mph ()    
Max Wind Speed 13 mph    
Max Gust Speed -    
Visibility 9.6 miles    
Events      
Averages and records for this station are not official NWS values.
T = Trace of Precipitation, MM = Missing Value Source: Averaged Metar Reports

Daily Weather History Graph

Daily Weather History Graph

Search for Another Location

Airport or City:

Astronomy

Nov. 19, 2019 Rise Set
Actual Time 7:30 AM CST 5:09 PM CST
Civil Twilight 6:59 AM CST 5:39 PM CST
Nautical Twilight 6:25 AM CST 6:14 PM CST
Astronomical Twilight 5:52 AM CST 6:47 PM CST
Moon No Moon Rise 1:41 PM CST (11/19)
Length of Visible Light 10h 39m
Length of Day
9h 38m
Waning Gibbous, 51% of the Moon is Illuminated
Nov 19
Waning Gibbous
Nov 19
Last Quarter
Nov 26
New
Dec 4
First Quarter
Dec 11
Full

Hourly Weather History & Observations

Time (CST) Temp. Windchill Dew Point Humidity Pressure Visibility Wind Dir Wind Speed Gust Speed Precip Events Conditions
12:35 AM 36.9 °F 33.1 °F 32.4 °F 84% 29.83 in 10.0 mi West 4.6 mph - N/A   Clear
12:55 AM 35.2 °F 32.4 °F 31.8 °F 87% 29.83 in 10.0 mi WSW 3.5 mph - N/A   Clear
1:15 AM 35.2 °F 28.8 °F 32.0 °F 88% 29.84 in 10.0 mi West 8.1 mph - N/A   Clear
1:35 AM 35.6 °F 28.6 °F 32.0 °F 87% 29.84 in 10.0 mi West 9.2 mph - N/A   Clear
1:55 AM 35.6 °F 28.6 °F 32.0 °F 87% 29.84 in 10.0 mi West 9.2 mph - N/A   Clear
2:15 AM 35.1 °F 27.9 °F 32.0 °F 89% 29.84 in 10.0 mi West 9.2 mph - N/A   Clear
2:35 AM 35.4 °F 29.0 °F 31.8 °F 87% 29.84 in 10.0 mi West 8.1 mph - N/A   Clear
2:55 AM 34.9 °F 27.7 °F 31.8 °F 89% 29.85 in 10.0 mi West 9.2 mph - N/A   Clear
3:15 AM 34.7 °F 28.1 °F 31.8 °F 89% 29.85 in 10.0 mi West 8.1 mph - N/A   Clear
3:35 AM 34.7 °F 28.1 °F 31.5 °F 88% 29.85 in 10.0 mi West 8.1 mph - N/A   Clear
3:55 AM 34.7 °F 28.8 °F 31.1 °F 87% 29.85 in 10.0 mi West 6.9 mph - N/A   Clear
4:15 AM 34.7 °F 29.6 °F 30.9 °F 86% 29.84 in 10.0 mi West 5.8 mph - N/A   Clear
4:35 AM 34.3 °F 29.2 °F 30.6 °F 86% 29.84 in 10.0 mi West 5.8 mph - N/A   Clear
4:55 AM 34.2 °F 29.0 °F 30.2 °F 85% 29.85 in 10.0 mi West 5.8 mph - N/A   Clear
5:15 AM 34.3 °F 31.4 °F 30.2 °F 85% 29.85 in 10.0 mi West 3.5 mph - N/A   Clear
5:35 AM 34.5 °F 30.4 °F 30.0 °F 84% 29.85 in 10.0 mi West 4.6 mph - N/A   Clear
5:55 AM 33.8 °F 28.6 °F 29.8 °F 85% 29.86 in 10.0 mi WSW 5.8 mph - N/A   Clear
6:15 AM 33.4 °F 30.4 °F 29.5 °F 85% 29.87 in 10.0 mi WSW 3.5 mph - N/A   Clear
6:35 AM 33.4 °F 28.1 °F 29.7 °F 86% 29.87 in 10.0 mi WSW 5.8 mph - N/A   Clear
6:55 AM 33.8 °F 27.7 °F 30.0 °F 86% 29.88 in 10.0 mi West 6.9 mph - N/A   Clear
7:15 AM 33.3 °F 30.2 °F 29.3 °F 85% 29.88 in 10.0 mi West 3.5 mph - N/A   Clear
7:35 AM 33.1 °F 27.7 °F 28.9 °F 85% 29.88 in 10.0 mi WNW 5.8 mph - N/A   Clear
7:55 AM 32.4 °F - 29.1 °F 88% 29.88 in 10.0 mi Calm Calm - N/A   Clear
8:15 AM 33.4 °F 29.1 °F 30.2 °F 88% 29.90 in 10.0 mi NW 4.6 mph - N/A   Clear
8:35 AM 36.0 °F 33.3 °F 31.6 °F 84% 29.89 in 10.0 mi WNW 3.5 mph - N/A   Clear
8:55 AM 37.0 °F - 32.0 °F 82% 29.89 in 10.0 mi Calm Calm - N/A   Clear
9:15 AM 39.7 °F - 33.1 °F 77% 29.90 in 10.0 mi Calm Calm - N/A   Clear
9:35 AM 41.4 °F 39.4 °F 32.9 °F 72% 29.90 in 10.0 mi NW 3.5 mph - N/A   Clear
9:55 AM 43.5 °F - 34.2 °F 70% 29.90 in 10.0 mi Calm Calm - N/A   Clear
10:15 AM 45.5 °F - 33.6 °F 63% 29.91 in 10.0 mi Calm Calm - N/A   Clear
10:55 AM 48.0 °F - 32.9 °F 56% 29.90 in 10.0 mi Calm Calm - N/A   Clear
11:15 AM 49.1 °F - 32.4 °F 53% 29.90 in 10.0 mi Calm Calm - N/A   Clear
11:35 AM 50.2 °F - 32.7 °F 51% 29.89 in 5.0 mi East 3.5 mph - N/A   Haze
11:55 AM 51.1 °F - 31.5 °F 47% 29.89 in 0.8 mi Calm Calm - N/A   Haze
12:15 PM 51.6 °F - 31.1 °F 45% 29.88 in 2.5 mi Calm Calm - N/A   Haze
12:35 PM 52.2 °F - 30.4 °F 43% 29.87 in 10.0 mi Calm Calm - N/A   Clear
12:55 PM 53.6 °F - 30.9 °F 42% 29.87 in 7.0 mi East 3.5 mph - N/A   Clear
1:15 PM 53.2 °F - 30.7 °F 42% 29.86 in 10.0 mi East 3.5 mph - N/A   Scattered Clouds
1:35 PM 54.1 °F - 31.1 °F 41% 29.85 in 10.0 mi ENE 4.6 mph - N/A   Mostly Cloudy
1:55 PM 54.7 °F - 31.5 °F 41% 29.84 in 10.0 mi East 3.5 mph - N/A   Overcast
2:15 PM 55.8 °F - 31.5 °F 40% 29.84 in 10.0 mi ESE 5.8 mph - N/A   Mostly Cloudy
2:35 PM 56.1 °F - 31.8 °F 40% 29.83 in 10.0 mi East 5.8 mph - N/A   Scattered Clouds
2:55 PM 55.0 °F - 32.0 °F 42% 29.82 in 10.0 mi East 8.1 mph - N/A   Scattered Clouds
3:15 PM 56.3 °F - 32.0 °F 40% 29.82 in 10.0 mi ESE 10.4 mph - N/A   Scattered Clouds
3:35 PM 55.4 °F - 32.0 °F 41% 29.82 in 10.0 mi East 10.4 mph - N/A   Mostly Cloudy
3:55 PM 54.1 °F - 31.8 °F 43% 29.82 in 10.0 mi East 11.5 mph - N/A   Scattered Clouds
4:15 PM 53.2 °F - 32.0 °F 44% 29.82 in 10.0 mi East 9.2 mph - N/A   Clear
4:35 PM 51.4 °F - 32.0 °F 47% 29.83 in 10.0 mi East 9.2 mph - N/A   Clear
4:55 PM 49.1 °F - 32.0 °F 52% 29.82 in 10.0 mi East 8.1 mph - N/A   Clear
5:15 PM 45.5 °F 41.3 °F 32.0 °F 59% 29.82 in 10.0 mi East 8.1 mph - N/A   Clear
5:35 PM 46.8 °F - 32.0 °F 57% 29.82 in 10.0 mi East 10.4 mph - N/A   Clear
5:55 PM 46.8 °F - 31.6 °F 56% 29.82 in 10.0 mi East 10.4 mph - N/A   Clear
6:15 PM 47.3 °F - 31.6 °F 55% 29.82 in 10.0 mi East 10.4 mph - N/A   Clear
6:35 PM 47.1 °F - 32.0 °F 56% 29.83 in 10.0 mi ESE 10.4 mph - N/A   Clear
6:55 PM 47.3 °F - 32.0 °F 55% 29.83 in 10.0 mi ESE 9.2 mph - N/A   Clear
7:15 PM 47.3 °F - 32.0 °F 55% 29.83 in 10.0 mi ESE 9.2 mph - N/A   Clear
7:35 PM 46.8 °F - 32.0 °F 57% 29.83 in 10.0 mi ESE 9.2 mph - N/A   Clear
7:55 PM 46.6 °F - 32.0 °F 57% 29.83 in 10.0 mi ESE 8.1 mph - N/A   Clear
8:15 PM 46.2 °F 41.2 °F 32.0 °F 58% 29.83 in 10.0 mi ESE 10.4 mph - N/A   Clear
8:35 PM 45.7 °F 40.6 °F 32.0 °F 59% 29.83 in 10.0 mi ESE 10.4 mph - N/A   Clear
8:55 PM 45.5 °F 39.6 °F 32.4 °F 60% 29.82 in 10.0 mi ESE 12.7 mph - N/A   Clear
9:15 PM 45.5 °F 39.9 °F 32.9 °F 61% 29.82 in 10.0 mi ESE 11.5 mph - N/A   Clear
9:35 PM 44.4 °F 39.0 °F 32.9 °F 64% 29.82 in 10.0 mi SE 10.4 mph - N/A   Clear
9:55 PM 43.9 °F 38.8 °F 33.3 °F 66% 29.83 in 10.0 mi SE 9.2 mph - N/A   Clear
10:15 PM 43.7 °F 39.1 °F 33.3 °F 67% 29.82 in 10.0 mi SE 8.1 mph - N/A   Clear
10:35 PM 43.7 °F 39.1 °F 33.3 °F 67% 29.82 in 10.0 mi SE 8.1 mph - N/A   Clear
10:55 PM 42.8 °F 38.6 °F 33.3 °F 69% 29.82 in 10.0 mi SE 6.9 mph - N/A   Clear
11:15 PM 42.8 °F 38.0 °F 33.1 °F 69% 29.82 in 10.0 mi SE 8.1 mph - N/A   Clear
11:35 PM 41.9 °F 36.3 °F 33.1 °F 71% 29.81 in 10.0 mi SE 9.2 mph - N/A   Clear
11:55 PM 41.9 °F 36.9 °F 33.1 °F 71% 29.81 in 10.0 mi SE 8.1 mph - N/A   Clear